Regional Weather Roundup
Issued by NWS

Home | Current Version | Previous Version | Text Only | Print | Product List | Glossary On
Versions: 1 2 3 4 5 6 7 8 9 10 11 12 13 14 15 16 17 18 19 20 21 22 23 24 25 26 27 28 29 30 31 32 33 34 35 36 37 38 39 40 41 42 43 44 45 46 47 48 49 50
000
ASUS43 KMKX 292111
RWRWI

WISCONSIN REGIONAL WEATHER ROUNDUP
NATIONAL WEATHER SERVICE MILWAUKEE/SULLIVAN WI
400 PM CDT FRI AUG 29 2014

NOTE: "FAIR" INDICATES FEW OR NO CLOUDS BELOW 12,000 FEET WITH NO
SIGNIFICANT WEATHER AND/OR OBSTRUCTIONS TO VISIBILITY.

WIZ001-002-006>008-014>016-023>028-292200-
NORTHWEST WISCONSIN

CITY           SKY/WX    TMP DP  RH WIND       PRES   REMARKS
SUPERIOR ARPT  CLOUDY    62  62  98 NE7       29.74F
ASHLAND        CLOUDY    68  66  93 CALM      29.76F
HAYWARD        CLOUDY    69  68  96 S8        29.76F
SIREN          LGT RAIN  69  67  93 S6        29.73F
RICE LAKE      RAIN      67  65  92 S3        29.78F
LADYSMITH      CLOUDY    74  68  80 SE5       29.80F
EAU CLAIRE     LGT RAIN  79  71  76 S5        29.74F HX  82
MENOMONIE      LGT RAIN  77  72  83 S7        29.73F
NEW RICHMOND   CLOUDY    73  67  83 CALM      29.76F
OSCEOLA        LGT RAIN  69  69  99 CALM      29.78S
$$

WIZ003>005-009-010-017-018-292200-
NORTH CENTRAL WISCONSIN

CITY           SKY/WX    TMP DP  RH WIND       PRES   REMARKS
WOODRUFF       CLOUDY    72  67  83 S7        29.82F
RHINELANDER    PTSUNNY   70  65  84 S8        29.84F
EAGLE RIVER    PTSUNNY   70  65  85 S7        29.83S
LAND O LAKES   CLOUDY    71  64  79 S7        29.83F
PHILLIPS       CLOUDY    73  67  83 CALM      29.80F
TOMAHAWK       CLOUDY    69  65  88 SE3       29.83F FOG
MEDFORD        PTSUNNY   76  69  78 SE9       29.81F
MERRILL        PTSUNNY   73  68  85 SE7       29.82F HAZE
$$

WIZ029-030-035-036-043>047-292200-
CENTRAL WISCONSIN

CITY           SKY/WX    TMP DP  RH WIND       PRES   REMARKS
WAUSAU         CLOUDY    77  68  73 S12       29.81F
MOSINEE        PTSUNNY   77  72  83 SE9       29.83F
MARSHFIELD     MOSUNNY   81  71  71 S10       29.80F HX  85
STEVENS POINT  PTSUNNY   80  69  70 S9        29.82F HX  83
WAUPACA        MOSUNNY   87  70  58 S9        29.81F HX  91
WAUTOMA        MOSUNNY   86  72  62 S9        29.81F HX  92
WISC RAPIDS    MOSUNNY   84  71  65 S5        29.81F HX  89
CAMP DOUGLAS   SUNNY     86  72  63 S10       29.79F HX  92
$$

WIZ011>013-019>022-031-037>040-048>050-292200-
NORTHEAST WISCONSIN

CITY           SKY/WX    TMP DP  RH WIND       PRES   REMARKS
ANTIGO         CLOUDY    70  67  92 S10       29.85F
STURGEON BAY   CLOUDY    70  64  83 S17G26    29.86F
GREEN BAY      MOSUNNY   84  72  67 SW12G18   29.82F HX  89
MANITOWOC      PTSUNNY   73  68  84 S20G29    29.86F
APPLETON       PTSUNNY   84  70  61 SW15      29.84F HX  88
CLINTONVILLE   MOSUNNY   82  70  65 S7        29.81F HX  86
OSHKOSH        MOSUNNY   85  73  67 S13       29.82F HX  91
$$

WIZ032>034-041-042-053>061-292200-
SOUTHWEST WISCONSIN

CITY           SKY/WX    TMP DP  RH WIND       PRES   REMARKS
LA CROSSE      SUNNY     87  72  60 S12       29.74F HX  93
SPARTA         MOSUNNY   85  68  58 S7        29.78F HX  88
VIROQUA        MOCLDY    83  69  63 S9        29.80F HX  86
BOSCOBEL       MOSUNNY   89  70  53 S10G17    29.78F HX  94
PRAIRIE DU CHI SUNNY     87  66  50 SE12      29.76F HX  89
PLATTEVILLE    FAIR      85  72  65 S13G20    29.83F HX  90
$$

WIZ056-057-062-063-064-067-068-292200-
SOUTH CENTRAL WISCONSIN

CITY           SKY/WX    TMP DP  RH WIND       PRES   REMARKS
BARABOO/DELLS  MOSUNNY   87  68  52 SW12G18   29.81F HX  90
LONE ROCK      MOSUNNY   90  73  57 S10G20    29.79F HX  98
WATERTOWN      MOSUNNY   80  71  74 S7        29.85F HX  83
MADISON        MOSUNNY   85  69  58 S14       29.83F HX  89
MIDDLETON      FAIR      86  69  57 S10       29.83F HX  90
MONROE         SUNNY     82  72  69 S12       29.85F HX  87
JANESVILLE     SUNNY     86  68  54 S12       29.85F HX  89
$$

WIZ051-052-058>065-066-070>072-292200-
SOUTHEAST WISCONSIN

CITY           SKY/WX    TMP DP  RH WIND       PRES   REMARKS
MILWAUKEE      PTSUNNY   78  71  79 SE12      29.88F HX  80
WAUKESHA       MOSUNNY   79  70  73 S12       29.89F HX  81
MILWAUKEE/TIMM MOSUNNY   82  70  65 S12G17    29.88F HX  86
RACINE         PTSUNNY   76  70  82 S14       29.90F
BURLINGTON     PTSUNNY   80  71  74 S6        29.88F HX  83
KENOSHA        PTSUNNY   81  73  76 SE10      29.89F HX  86
FOND DU LAC    SUNNY     84  71  65 S15G22    29.83F HX  89
SHEBOYGAN      MOSUNNY   78  70  76 S14G21    29.86F HX  80
WEST BEND      MOSUNNY   81  68  65 S13G18    29.87S HX  83
JUNEAU         MOSUNNY   82  69  64 S13       29.86F HX  86
$$

LSZ147-162-292200-
LAKE SUPERIOR

STATION/POSITION TIME  TEMP    WIND        PRES    WAVE
                       AIR SEA DIR/SP/G            HT/PER
                 (UTC) (F)     (DEG/KT/KT) (MB)    (FT/S)
W MID LAKE BUOY  2050   59 57   90/  6/  8 1007.6F   1
DEVILS ISLAND    2100   62     100/  3/  3 1007.8F
PORT WING        2000   63      40/  5/  7 1008.5S
SAXON HARBOR     2000   67     180/  1/  6 1008.1F
$$

LMZ867-665-643>646-292200-
LAKE MICHIGAN

STATION/POSITION TIME  TEMP    WIND        PRES    WAVE
                       AIR SEA DIR/SP/G            HT/PER
                 (UTC) (F)     (DEG/KT/KT) (MB)    (FT/S)
N MID LAKE BUOY  2050   67 65  210/ 10/ 10 1011.5F   4/ 5
NORTHPORT PIER   2000   68     170/ 10/ 17 1011.9F
SISTER BAY       2011   72     170/ 19/ 23   N/A
KEWAUNEE LAKESHO 2000   67     170/ 16/ 20 1011.0F
SHEBOYGAN LAKESH 2100   68 70  180/ 15/ 16 1011.3F
ATWATER BUOY     2100   71     150/ 17/ 19 1012.4F
MILWAUKEE LAKESH 2000   71     140/ 18/ 20   N/A
S MID LAKE BUOY  2050   71 69  150/ 16/ 17 1012.6F   3/ 5
KENOSHA   LAKESH 2100   74     170/ 12/ 16 1011.5F
$$

TC  - TEMPERATURE IN CELSIUS
VSB - VISIBILITY IN STATUTE MILES
WCI - WIND CHILL INDEX
HX  - HEAT INDEX




USA.gov is the U.S. government's official web portal to all federal, state and local government web resources and services.